H1 CPF 2 NER 2023 8 11 9 223 01 glonass133 H2 1403201 9133 40001 2023 8 11 0 0 0 2023 8 14 23 45 0 900 1 1 0 0 0 1 H9 10 0 60167 0.00000 0 -22080692.148 -12731671.096 -269349.886 10 0 60167 900.00000 0 -21970861.188 -12440999.592 -3501455.251 10 0 60167 1800.00000 0 -21479241.869 -12000867.523 -6665395.962 10 0 60167 2700.00000 0 -20597488.963 -11468726.861 -9699595.461 10 0 60167 3600.00000 0 -19330856.368 -10903638.586 -12545028.357 10 0 60167 4500.00000 0 -17698143.608 -10363588.391 -15146374.813 10 0 60167 5400.00000 0 -15731086.062 -9902863.059 -17453099.320 10 0 60167 6300.00000 0 -13473214.644 -9569599.258 -19420432.573 10 0 60167 7200.00000 0 -10978233.082 -9403608.824 -21010237.401 10 0 60167 8100.00000 0 -8307981.013 -9434572.389 -22191742.447 10 0 60167 9000.00000 0 -5530068.186 -9680677.266 -22942130.118 10 0 60167 9900.00000 0 -2715278.474 -10147756.455 -23246968.396 10 0 60167 10800.00000 0 65148.521 -10828964.330 -23100479.231 10 0 60167 11700.00000 0 2742245.855 -11705001.994 -22505639.388 10 0 60167 12600.00000 0 5251945.210 -12744882.240 -21474112.718 10 0 60167 13500.00000 0 7537492.652 -13907201.616 -20026015.889 10 0 60167 14400.00000 0 9551555.435 -15141866.056 -18189522.567 10 0 60167 15300.00000 0 11257933.956 -16392197.723 -16000313.938 10 0 60167 16200.00000 0 12632809.530 -17597334.968 -13500886.152 10 0 60167 17100.00000 0 13665477.780 -18694825.122 -10739727.848 10 0 60167 18000.00000 0 14358538.772 -19623301.808 -7770383.351 10 0 60167 18900.00000 0 14727537.467 -20325134.880 -4650419.232 10 0 60167 19800.00000 0 14800070.817 -20748942.124 -1440313.762 10 0 60167 20700.00000 0 14614399.934 -20851857.493 1797709.615 10 0 60167 21600.00000 0 14217626.313 -20601460.637 5000882.602 10 0 60167 22500.00000 0 13663509.198 -19977286.506 8107103.256 10 0 60167 23400.00000 0 13010016.117 -18971851.148 11056134.898 10 0 60167 24300.00000 0 12316709.735 -17591149.909 13790769.774 10 0 60167 25200.00000 0 11642080.944 -15854606.097 16257935.228 10 0 60167 26100.00000 0 11040940.408 -13794470.994 18409721.169 10 0 60167 27000.00000 0 10561978.313 -11454698.847 20204309.205 10 0 60167 27900.00000 0 10245595.074 -8889342.202 21606785.640 10 0 60167 28800.00000 0 10122094.556 -6160532.940 22589822.674 10 0 60167 29700.00000 0 10210316.241 -3336131.502 23134214.595 10 0 60167 30600.00000 0 10516764.607 -487140.703 23229258.384 10 0 60167 31500.00000 0 11035273.240 2315009.550 22872970.934 10 0 60167 32400.00000 0 11747218.966 5001194.754 22072138.064 10 0 60167 33300.00000 0 12622278.184 7507232.630 20842193.597 10 0 60167 34200.00000 0 13619694.800 9776315.012 19206929.914 10 0 60167 35100.00000 0 14690007.497 11761133.772 17198044.634 10 0 60167 36000.00000 0 15777164.398 13425612.241 14854531.308 10 0 60167 36900.00000 0 16820936.484 14746169.807 12221925.222 10 0 60167 37800.00000 0 17759528.053 15712466.847 9351418.484 10 0 60167 38700.00000 0 18532273.677 16327598.991 6298861.435 10 0 60167 39600.00000 0 19082307.018 16607732.974 3123670.067 10 0 60167 40500.00000 0 19359087.691 16581200.137 -112338.692 10 0 60167 41400.00000 0 19320678.181 16287086.793 -3346160.269 10 0 60167 42300.00000 0 18935673.306 15773382.200 -6514839.511 10 0 60167 43200.00000 0 18184699.568 15094763.867 -9556706.224 10 0 60167 44100.00000 0 17061420.100 14310115.272 -12412583.974 10 0 60167 45000.00000 0 15573002.135 13479882.431 -15026947.571 10 0 60167 45900.00000 0 13740026.902 12663382.288 -17349006.033 10 0 60167 46800.00000 0 11595845.524 11916177.591 -19333689.639 10 0 60167 47700.00000 0 9185408.035 11287629.652 -20942521.923 10 0 60167 48600.00000 0 6563614.635 10818732.341 -22144360.123 10 0 60167 49500.00000 0 3793258.211 10540318.304 -22915990.492 10 0 60167 50400.00000 0 942643.941 10471712.290 -23242567.884 10 0 60167 51300.00000 0 -1917015.093 10619887.391 -23117892.180 10 0 60167 52200.00000 0 -4714318.516 10979158.625 -22544517.283 10 0 60167 53100.00000 0 -7380403.205 11531425.806 -21533691.502 10 0 60167 54000.00000 0 -9851559.744 12246954.618 -20105131.217 10 0 60167 54900.00000 0 -12071633.507 13085662.494 -18286632.696 10 0 60167 55800.00000 0 -13994112.141 13998854.908 -16113529.792 10 0 60167 56700.00000 0 -15583814.340 14931339.070 -13628007.991 10 0 60167 57600.00000 0 -16818111.289 15823826.330 -10878287.845 10 0 60167 58500.00000 0 -17687631.477 16615522.616 -7917693.261 10 0 60167 59400.00000 0 -18196420.925 17246798.344 -4803622.237 10 0 60167 60300.00000 0 -18361553.411 17661825.886 -1596439.516 10 0 60167 61200.00000 0 -18212208.018 17811073.892 1641687.799 10 0 60167 62100.00000 0 -17788253.465 17653553.618 4847989.509 10 0 60167 63000.00000 0 -17138399.124 17158722.650 7960303.565 10 0 60167 63900.00000 0 -16317990.669 16307965.567 10918276.108 10 0 60167 64800.00000 0 -15386543.092 15095588.592 13664527.346 10 0 60167 65700.00000 0 -14405114.672 13529285.479 16145760.950 10 0 60167 66600.00000 0 -13433632.178 11630053.795 18313795.728 10 0 60167 67500.00000 0 -12528279.536 9431563.545 20126499.869 10 0 60167 68400.00000 0 -11739059.568 6979002.787 21548609.856 10 0 60167 69300.00000 0 -11107631.207 4327446.645 22552418.290 10 0 60167 70200.00000 0 -10665513.190 1539815.845 23118317.324 10 0 60167 71100.00000 0 -10432729.982 -1315491.923 23235186.953 10 0 60167 72000.00000 0 -10416957.338 -4167200.796 22900620.262 10 0 60167 72900.00000 0 -10613204.116 -6943878.857 22120980.656 10 0 60167 73800.00000 0 -11004044.537 -9576671.380 20911289.164 10 0 60167 74700.00000 0 -11560392.014 -12001932.071 19294943.086 10 0 60167 75600.00000 0 -12242782.805 -14163643.085 17303270.480 10 0 60167 76500.00000 0 -13003116.084 -16015523.069 14974928.192 10 0 60167 77400.00000 0 -13786777.451 -17522735.090 12355154.394 10 0 60167 78300.00000 0 -14535056.334 -18663122.971 9494889.646 10 0 60167 79200.00000 0 -15187754.838 -19427924.181 6449783.379 10 0 60167 80100.00000 0 -15685877.075 -19821929.509 3279105.379 10 0 60167 81000.00000 0 -15974284.187 -19863083.210 44584.029 10 0 60167 81900.00000 0 -16004201.530 -19581541.202 -3190805.215 10 0 60167 82800.00000 0 -15735470.579 -19018227.995 -6364076.328 10 0 60167 83700.00000 0 -15138448.995 -18222954.565 -9413468.921 10 0 60167 84600.00000 0 -14195477.382 -17252178.002 -12279658.914 10 0 60167 85500.00000 0 -12901849.850 -16166499.004 -14906919.039 10 0 60168 0.00000 0 -11266246.931 -15028004.283 -17244205.699 10 0 60168 900.00000 0 -9310611.268 -13897566.449 -19246151.911 10 0 60168 1800.00000 0 -7069473.353 -12832217.474 -20873943.969 10 0 60168 2700.00000 0 -4588752.594 -11882704.572 -22096069.457 10 0 60168 3600.00000 0 -1924085.949 -11091332.688 -22888919.612 10 0 60168 4500.00000 0 861246.984 -10490183.072 -23237236.651 10 0 60168 5400.00000 0 3698716.014 -10099781.904 -23134398.258 10 0 60168 6300.00000 0 6517150.488 -9928273.665 -22582534.765 10 0 60168 7200.00000 0 9245459.595 -9971132.644 -21592477.719 10 0 60168 8100.00000 0 11815350.823 -10211423.443 -20183541.560 10 0 60168 9000.00000 0 14163934.802 -10620598.411 -18383143.124 10 0 60168 9900.00000 0 16236109.635 -11159797.693 -16226266.562 10 0 60168 10800.00000 0 17986627.069 -11781596.686 -13754784.025 10 0 60168 11700.00000 0 19381756.016 -12432127.179 -11016645.027 10 0 60168 12600.00000 0 20400475.587 -13053482.892 -8064949.870 10 0 60168 13500.00000 0 21035149.194 -13586308.353 -4956924.611 10 0 60168 14400.00000 0 21291652.793 -13972462.319 -1752816.995 10 0 60168 15300.00000 0 21188952.819 -14157643.780 1485265.691 10 0 60168 16200.00000 0 20758152.284 -14093870.063 4694554.697 10 0 60168 17100.00000 0 20041045.491 -13741702.621 7812830.999 10 0 60168 18000.00000 0 19088242.282 -13072126.458 10779626.367 10 0 60168 18900.00000 0 17956940.589 -12068003.557 13537391.373 10 0 60168 19800.00000 0 16708440.695 -10725038.265 16032607.982 10 0 60168 20700.00000 0 15405505.292 -9052212.887 18216825.409 10 0 60168 21600.00000 0 14109675.879 -7071673.676 20047599.472 10 0 60168 22500.00000 0 12878657.745 -4818070.214 21489317.433 10 0 60168 23400.00000 0 11763883.024 -2337373.859 22513892.487 10 0 60168 24300.00000 0 10808353.852 314777.406 23101314.430 10 0 60168 25200.00000 0 10044856.071 3075140.728 23240045.679 10 0 60168 26100.00000 0 9494618.590 5875252.619 22927254.576 10 0 60168 27000.00000 0 9166474.943 8644037.995 22168880.847 10 0 60168 27900.00000 0 9056562.716 11310536.696 20979531.188 10 0 60168 28800.00000 0 9148574.011 13806634.781 19382206.049 10 0 60168 29700.00000 0 9414546.936 16069687.352 17407861.965 10 0 60168 30600.00000 0 9816165.243 18044923.689 15094816.972 10 0 60168 31500.00000 0 10306511.563 19687534.159 12488009.916 10 0 60168 32400.00000 0 10832200.237 20964351.392 9638127.499 10 0 60168 33300.00000 0 11335799.280 21855055.044 6600615.881 10 0 60168 34200.00000 0 11758438.340 22352849.444 3434596.245 10 0 60168 35100.00000 0 12042491.322 22464585.714 201706.022 10 0 60168 36000.00000 0 12134218.821 22210323.588 -3035110.792 10 0 60168 36900.00000 0 11986257.109 21622352.088 -6212839.542 10 0 60168 37800.00000 0 11559846.895 20743711.321 -9269631.731 10 0 60168 38700.00000 0 10826706.260 19626278.964 -12146017.511 10 0 60168 39600.00000 0 9770467.455 18328503.487 -14786069.189 10 0 60168 40500.00000 0 8387616.036 16912880.984 -17138492.371 10 0 60168 41400.00000 0 6687892.103 15443283.056 -19157623.188 10 0 60168 42300.00000 0 4694136.382 13982249.101 -20804312.191 10 0 60168 43200.00000 0 2441587.363 12588357.290 -22046678.192 10 0 60168 44100.00000 0 -23341.211 11313784.643 -22860718.155 10 0 60168 45000.00000 0 -2644751.504 10202158.119 -23230762.244 10 0 60168 45900.00000 0 -5359351.078 9286785.869 -23149766.322 10 0 60168 46800.00000 0 -8098854.027 8589341.530 -22619437.267 10 0 60168 47700.00000 0 -10792594.396 8119055.165 -21650189.668 10 0 60168 48600.00000 0 -13370244.013 7872443.211 -20260935.472 10 0 60168 49500.00000 0 -15764522.770 7833587.212 -18478711.170 10 0 60168 50400.00000 0 -17913789.824 7974948.331 -16338149.958 10 0 60168 51300.00000 0 -19764409.234 8258682.389 -13880809.128 10 0 60168 52200.00000 0 -21272792.882 8638399.419 -11154365.416 10 0 60168 53100.00000 0 -22407036.831 9061293.292 -8211693.632 10 0 60168 54000.00000 0 -23148084.060 9470551.580 -5109845.915 10 0 60168 54900.00000 0 -23490366.060 9807944.169 -1908950.962 10 0 60168 55800.00000 0 -23441897.304 10016481.609 1328945.865 10 0 60168 56700.00000 0 -23023819.295 10043031.218 4541079.460 10 0 60168 57600.00000 0 -22269413.706 9840780.671 7665176.100 10 0 60168 58500.00000 0 -21222626.163 9371445.029 10640655.560 10 0 60168 59400.00000 0 -19936162.577 8607123.809 13409801.229 10 0 60168 60300.00000 0 -18469237.634 7531729.189 15918875.850 10 0 60168 61200.00000 0 -16885069.537 6141924.230 18119161.510 10 0 60168 62100.00000 0 -15248225.570 4447530.326 19967904.004 10 0 60168 63000.00000 0 -13621929.215 2471385.091 21429143.543 10 0 60168 63900.00000 0 -12065441.198 248654.706 22474415.802 10 0 60168 64800.00000 0 -10631623.694 -2174372.575 23083309.782 10 0 60168 65700.00000 0 -9364789.387 -4741963.545 23243871.500 10 0 60168 66600.00000 0 -8298925.331 -7391019.784 22952845.307 10 0 60168 67500.00000 0 -7456365.982 -10053475.183 22215747.571 10 0 60168 68400.00000 0 -6846971.151 -12658912.818 21046770.522 10 0 60168 69300.00000 0 -6467843.607 -15137293.233 19468517.171 10 0 60168 70200.00000 0 -6303598.420 -17421681.052 17511571.502 10 0 60168 71100.00000 0 -6327172.942 -19450856.442 15213911.293 10 0 60168 72000.00000 0 -6501143.368 -21171702.250 12620174.225 10 0 60168 72900.00000 0 -6779492.209 -22541266.614 9780790.989 10 0 60168 73800.00000 0 -7109751.626 -23528414.228 6751002.041 10 0 60168 74700.00000 0 -7435431.263 -24114996.520 3589777.319 10 0 60168 75600.00000 0 -7698626.831 -24296491.302 358660.514 10 0 60168 76500.00000 0 -7842697.703 -24082084.961 -2879438.770 10 0 60168 77400.00000 0 -7814898.680 -23494194.035 -6061480.271 10 0 60168 78300.00000 0 -7568852.967 -22567446.944 -9125530.471 10 0 60168 79200.00000 0 -7066760.245 -21347169.727 -12011976.883 10 0 60168 80100.00000 0 -6281245.179 -19887440.736 -14664694.481 10 0 60168 81000.00000 0 -5196767.192 -18248797.415 -17032140.862 10 0 60168 81900.00000 0 -3810531.274 -16495692.801 -19068358.454 10 0 60168 82800.00000 0 -2132860.932 -14693809.617 -20733864.270 10 0 60168 83700.00000 0 -187017.257 -12907345.312 -21996410.360 10 0 60168 84600.00000 0 1991528.506 -11196382.037 -22831600.908 10 0 60168 85500.00000 0 4356338.565 -9614451.419 -23223354.976 10 0 60169 0.00000 0 6851716.402 -8206395.365 -23164207.021 10 0 60169 900.00000 0 9414809.202 -7006610.409 -22655440.317 10 0 60169 1800.00000 0 11978014.391 -6037749.330 -21707051.844 10 0 60169 2700.00000 0 14471595.185 -5309930.097 -20337549.979 10 0 60169 3600.00000 0 16826393.839 -4820485.362 -18573589.360 10 0 60169 4500.00000 0 18976531.958 -4554260.529 -16449450.338 10 0 60169 5400.00000 0 20861986.349 -4484446.539 -14006373.042 10 0 60169 6300.00000 0 22430934.264 -4573911.201 -11291758.760 10 0 60169 7200.00000 0 23641771.337 -4776972.257 -8358253.776 10 0 60169 8100.00000 0 24464719.078 -5041537.013 -5262732.984 10 0 60169 9000.00000 0 24882955.653 -5311518.120 -2065202.492 10 0 60169 9900.00000 0 24893223.381 -5529423.619 1172357.897 10 0 60169 10800.00000 0 24505888.065 -5639011.987 4387190.317 10 0 60169 11700.00000 0 23744447.942 -5587900.241 7516969.777 10 0 60169 12600.00000 0 22644512.921 -5330014.966 10501007.202 10 0 60169 13500.00000 0 21252296.747 -4827782.696 13281421.575 10 0 60169 14400.00000 0 19622684.923 -4053966.782 15804258.769 10 0 60169 15300.00000 0 17816958.888 -2993072.634 18020535.630 10 0 60169 16200.00000 0 15900271.132 -1642261.054 19887189.378 10 0 60169 17100.00000 0 13938976.272 -11729.814 21367914.168 10 0 60169 18000.00000 0 11997929.063 1875454.294 22433868.731 10 0 60169 18900.00000 0 10137861.725 3984067.898 23064241.424 10 0 60169 19800.00000 0 8412949.663 6267960.340 23246661.605 10 0 60169 20700.00000 0 6868666.952 8671750.497 22977448.963 10 0 60169 21600.00000 0 5540020.988 11132922.324 22261695.440 10 0 60169 22500.00000 0 4450240.013 13584233.325 21113177.339 10 0 60169 23400.00000 0 3609968.488 15956336.813 19554098.435 10 0 60169 24300.00000 0 3017004.032 18180509.363 17614668.058 10 0 60169 25200.00000 0 2656587.007 20191370.007 15332521.385 10 0 60169 26100.00000 0 2502230.478 21929477.464 12751992.408 10 0 60169 27000.00000 0 2517055.313 23343696.342 9923253.148 10 0 60169 27900.00000 0 2655573.636 24393232.585 6901335.615 10 0 60169 28800.00000 0 2865844.467 25049252.063 3745055.719 10 0 60169 29700.00000 0 3091909.370 25296013.683 515860.637 10 0 60169 30600.00000 0 3276403.684 25131468.972 -2723377.114 10 0 60169 31500.00000 0 3363231.258 24567302.764 -5909594.226 10 0 60169 32400.00000 0 3300187.883 23628413.510 -8980774.523 10 0 60169 33300.00000 0 3041420.779 22351855.672 -11877164.983 10 0 60169 34200.00000 0 2549618.687 20785289.553 -14542445.075 10 0 60169 35100.00000 0 1797838.829 18985004.836 -16924825.919 10 0 60169 36000.00000 0 770892.686 17013601.921 -18978057.499 10 0 60169 36900.00000 0 -533768.431 14937429.381 -20662324.308 10 0 60169 37800.00000 0 -2105705.676 12823885.651 -21945012.418 10 0 60169 38700.00000 0 -3921697.649 10738698.247 -22801333.818 10 0 60169 39600.00000 0 -5946489.574 8743294.168 -23214796.827 10 0 60169 40500.00000 0 -8134055.460 6892370.734 -23177514.553 10 0 60169 41400.00000 0 -10429320.684 5231767.170 -22690346.504 10 0 60169 42300.00000 0 -12770273.418 3796724.318 -21762871.562 10 0 60169 43200.00000 0 -15090377.364 2610603.342 -20413193.640 10 0 60169 44100.00000 0 -17321185.897 1684115.017 -18667584.286 10 0 60169 45000.00000 0 -19395049.505 1015089.900 -16559969.418 10 0 60169 45900.00000 0 -21247804.585 588797.171 -14131270.166 10 0 60169 46800.00000 0 -22821332.471 378797.231 -11428610.329 10 0 60169 47700.00000 0 -24065882.836 348290.980 -8504405.511 10 0 60169 48600.00000 0 -24942065.341 451908.134 -5415351.137 10 0 60169 49500.00000 0 -25422427.006 637858.691 -2221328.475 10 0 60169 50400.00000 0 -25492549.923 850356.588 1015750.509 10 0 60169 51300.00000 0 -25151623.716 1032213.159 4233137.493 10 0 60169 52200.00000 0 -24412468.924 1127491.005 7368458.558 10 0 60169 53100.00000 0 -23301010.307 1084106.202 10360918.148 10 0 60169 54000.00000 0 -21855221.809 856268.999 13152473.214 10 0 60169 54900.00000 0 -20123586.936 406659.738 15688955.098 10 0 60169 55800.00000 0 -18163138.358 -291752.211 17921117.646 10 0 60169 56700.00000 0 -16037157.990 -1254323.959 19805591.559 10 0 60169 57600.00000 0 -13812632.874 -2483848.434 21305726.746 10 0 60169 58500.00000 0 -11557572.311 -3970196.471 22392306.483 10 0 60169 59400.00000 0 -9338297.426 -5690508.448 23044119.613 10 0 60169 60300.00000 0 -7216815.544 -7609929.438 23248379.575 10 0 60169 61200.00000 0 -5248388.343 -9682859.144 23000981.745 10 0 60169 62100.00000 0 -3479394.807 -11854666.388 22306593.591 10 0 60169 63000.00000 0 -1945577.872 -14063798.292 21178575.084 10 0 60169 63900.00000 0 -670747.862 -16244197.519 19638729.976 10 0 60169 64800.00000 0 334003.143 -18327927.577 17716891.816 10 0 60169 65700.00000 0 1070543.244 -20247897.066 15450351.705 10 0 60169 66600.00000 0 1553388.939 -21940568.892 12883138.160 10 0 60169 67500.00000 0 1808853.081 -23348540.703 10065162.455 10 0 60169 68400.00000 0 1873689.008 -24422887.653 7051245.839 10 0 60169 69300.00000 0 1793288.839 -25125168.304 3900047.699 10 0 60169 70200.00000 0 1619513.129 -25429008.470 672916.061 10 0 60169 71100.00000 0 1408245.004 -25321195.630 -2567316.375 10 0 60169 72000.00000 0 1216773.816 -24802237.284 -5757566.043 10 0 60169 72900.00000 0 1101120.695 -23886359.560 -8835736.942 10 0 60169 73800.00000 0 1113420.855 -22600946.265 -11741938.351 10 0 60169 74700.00000 0 1299474.906 -20985442.471 -14419657.037 10 0 60169 75600.00000 0 1696573.975 -19089769.493 -16816860.348 10 0 60169 76500.00000 0 2331691.517 -16972318.655 -18887008.349 10 0 60169 77400.00000 0 3220118.731 -14697608.921 -20589955.256 10 0 60169 78300.00000 0 4364601.482 -12333707.161 -21892723.058 10 0 60169 79200.00000 0 5755015.181 -9949519.366 -22770132.998 10 0 60169 80100.00000 0 7368591.298 -7612065.974 -23205283.629 10 0 60169 81000.00000 0 9170685.994 -5383854.562 -23189867.226 10 0 60169 81900.00000 0 11116058.750 -3320458.467 -22724319.527 10 0 60169 82800.00000 0 13150607.625 -1468400.964 -21817800.865 10 0 60169 83700.00000 0 15213488.985 136568.541 -20488009.836 10 0 60169 84600.00000 0 17239533.668 1470736.364 -18760833.636 10 0 60169 85500.00000 0 19161859.327 2523173.771 -16669842.118 10 0 60170 0.00000 0 20914570.527 3295944.234 -14255635.613 10 0 60170 900.00000 0 22435435.532 3803762.231 -11565057.596 10 0 60170 1800.00000 0 23668426.468 4073118.497 -8650290.432 10 0 60170 2700.00000 0 24566020.508 4140911.073 -5567847.002 10 0 60170 3600.00000 0 25091164.094 4052639.572 -2377480.431 10 0 60170 4500.00000 0 25218819.355 3860239.698 858968.587 10 0 60170 5400.00000 0 24937028.084 3619649.585 4078764.721 10 0 60170 6300.00000 0 24247448.710 3388210.669 7219488.454 10 0 60170 7200.00000 0 23165343.579 3222012.832 10220240.864 10 0 60170 8100.00000 0 21719016.657 3173295.838 13022819.693 10 0 60170 9000.00000 0 19948724.551 3288016.775 15572844.216 10 0 60170 9900.00000 0 17905105.626 3603686.369 17820807.369 10 0 60170 10800.00000 0 15647191.966 4147565.837 19723035.041 10 0 60170 11700.00000 0 13240086.163 4935301.005 21242534.216 10 0 60170 12600.00000 0 10752398.895 5970052.268 22349713.650 10 0 60170 13500.00000 0 8253553.111 7242158.377 23022963.225 10 0 60170 14400.00000 0 5811066.226 8729349.872 23249080.588 10 0 60170 15300.00000 0 3487922.805 10397505.067 23023536.510 10 0 60170 16200.00000 0 1340146.538 12201918.837 22350573.242 10 0 60170 17100.00000 0 -585327.785 14089032.910 21243133.211 10 0 60170 18000.00000 0 -2252393.801 15998556.797 19722618.511 10 0 60170 18900.00000 0 -3637052.208 17865891.792 17818484.863 10 0 60170 19800.00000 0 -4728175.177 19624757.300 15567676.928 10 0 60170 20700.00000 0 -5527724.718 21209909.681 13013915.119 10 0 60170 21600.00000 0 -6050416.132 22559839.374 10206847.166 10 0 60170 22500.00000 0 -6322841.234 23619332.439 7201080.655 10 0 60170 23400.00000 0 -6382088.998 24341787.960 4055115.509 10 0 60170 24300.00000 0 -6273922.885 24691192.762 830197.677 10 0 60170 25200.00000 0 -6050593.141 24643669.272 -2410882.811 10 0 60170 26100.00000 0 -5768378.085 24188530.468 -5605024.864 10 0 60170 27000.00000 0 -5484960.084 23328796.844 -8690055.194 10 0 60170 27900.00000 0 -5256748.904 22081153.367 -11605947.692 10 0 60170 28800.00000 0 -5136267.264 20475348.308 -14295998.445 10 0 60170 29700.00000 0 -5169710.497 18553059.605 -16707932.756 10 0 60170 30600.00000 0 -5394784.469 16366276.925 -18794922.191 10 0 60170 31500.00000 0 -5838913.726 13975267.991 -20516491.833 10 0 60170 32400.00000 0 -6517895.785 11446214.880 -21839300.447 10 0 60170 33300.00000 0 -7435058.303 8848619.527 -22737779.151 10 0 60170 34200.00000 0 -8580954.432 6252586.840 -23194617.082 10 0 60170 35100.00000 0 -9933608.951 3726098.386 -23201085.755 10 0 60170 36000.00000 0 -11459304.633 1332389.429 -22757196.909 10 0 60170 36900.00000 0 -13113875.792 -872462.631 -21871691.741 10 0 60170 37800.00000 0 -14844454.893 -2841639.593 -20561862.581 10 0 60170 38700.00000 0 -16591599.397 -4539287.921 -18853210.959 10 0 60170 39600.00000 0 -18291710.289 -5941759.248 -16778949.009 10 0 60170 40500.00000 0 -19879641.687 -7038336.216 -14379353.871 10 0 60170 41400.00000 0 -21291393.050 -7831415.290 -11700987.408 10 0 60170 42300.00000 0 -22466771.969 -8336140.649 -8795796.049 10 0 60170 43200.00000 0 -23351916.708 -8579506.006 -5720107.748 10 0 60170 44100.00000 0 -23901573.393 -8598963.237 -2533545.053 10 0 60170 45000.00000 0 -24081032.734 -8440597.170 702125.071 10 0 60170 45900.00000 0 -23867645.315 -8156943.911 3924182.760 10 0 60170 46800.00000 0 -23251851.834 -7804544.922 7070165.395 10 0 60170 47700.00000 0 -22237684.813 -7441340.077 10079073.185 10 0 60170 48600.00000 0 -20842720.208 -7124009.635 12892547.121 10 0 60170 49500.00000 0 -19097480.168 -6905377.217 15455996.790 10 0 60170 50400.00000 0 -17044310.972 -6831983.335 17719656.444 10 0 60170 51300.00000 0 -14735781.939 -6941931.955 19639549.165 10 0 60170 52200.00000 0 -12232670.893 -7263101.209 21178340.720 10 0 60170 53100.00000 0 -9601619.000 -7811794.288 22306066.712 10 0 60170 54000.00000 0 -6912551.425 -8591888.238 23000719.030 10 0 60170 54900.00000 0 -4235970.047 -9594517.759 23248680.123 10 0 60170 55800.00000 0 -1640229.912 -10798308.786 23044996.350 10 0 60170 56700.00000 0 811088.062 -12170153.738 22393484.569 10 0 60170 57600.00000 0 3061599.440 -13666497.606 21306669.146 10 0 60170 58500.00000 0 5064233.151 -15235082.489 19805549.664 10 0 60170 59400.00000 0 6782954.931 -16817078.697 17919202.854 10 0 60170 60300.00000 0 8194025.522 -18349513.923 15684225.445 10 0 60170 61200.00000 0 9286741.130 -19767898.910 13144027.939 10 0 60170 62100.00000 0 10063625.357 -21008939.271 10347992.408 10 0 60170 63000.00000 0 10540064.923 -22013218.914 7350510.378 10 0 60170 63900.00000 0 10743405.132 -22727741.275 4209919.671 10 0 60170 64800.00000 0 10711544.099 -23108220.190 987361.352 10 0 60170 65700.00000 0 10491086.249 -23121022.681 -2254420.122 10 0 60170 66600.00000 0 10135134.538 -22744680.578 -5452309.073 10 0 60170 67500.00000 0 9700816.339 -21970906.320 -8544057.846 10 0 60170 68400.00000 0 9246649.306 -20805069.433 -11469507.779 10 0 60170 69300.00000 0 8829860.230 -19266113.310 -14171767.010 10 0 60170 70200.00000 0 8503771.659 -17385915.789 -16598321.355 10 0 60170 71100.00000 0 8315367.798 -15208120.600 -18702056.231 10 0 60170 72000.00000 0 8303143.226 -12786489.186 -20442169.634 10 0 60170 72900.00000 0 8495325.472 -10182842.293 -21784958.812 10 0 60170 73800.00000 0 8908546.368 -7464677.729 -22704466.037 10 0 60170 74700.00000 0 9547017.782 -4702563.844 -23182971.868 10 0 60170 75600.00000 0 10402245.932 -1967417.108 -23211327.434 10 0 60170 76500.00000 0 11453295.793 672223.464 -22789120.383 10 0 60170 77400.00000 0 12667594.029 3152812.656 -21924672.267 10 0 60170 78300.00000 0 14002236.501 5418198.714 -20634868.231 10 0 60170 79200.00000 0 15405745.449 7421708.204 -18944822.856 10 0 60170 80100.00000 0 16820202.819 9127831.128 -16887388.911 10 0 60170 81000.00000 0 18183670.671 10513438.087 -14502518.587 10 0 60170 81900.00000 0 19432797.668 11568480.659 -11836489.387 10 0 60170 82800.00000 0 20505502.924 12296147.545 -8941009.363 10 0 60170 83700.00000 0 21343625.187 12712471.580 -5872218.638 10 0 60170 84600.00000 0 21895426.721 12845405.424 -2689606.062 10 0 60170 85500.00000 0 22117847.088 12733405.774 545138.369 99